When you browse on this site, cookies collect data to enhance your experience and personalize the content and advertising you see.
Visit our Privacy Policy to learn more. By continuing to use the site, you agree to this use of cookies and data.
  • In Portugal
  • List of Countries
  • For 7 days
  • Water Temperature
  • Satellite Maps
  • Weather Map
  • Weather Widgets
  • user-avatar
    Login

    Hourly Weather Jurkow

    Today, 19 November, Monday

    Time Temperature Precipitation Wind Pressure Humidity
    00:00 -1°C° 0.2 mm 2 mps 741 mmHg 85%
    01:00 +1°C° 0 mm 2 mps 741 mmHg 91%
    02:00 +1°C° 0.3 mm 2 mps 741 mmHg 91%
    03:00 0°C° 0.3 mm 3 mps 741 mmHg 92%
    04:00 0°C° 0.3 mm 3 mps 740 mmHg 92%
    05:00 0°C° 0.1 mm 3 mps 740 mmHg 91%
    06:00 -1°C° 0.1 mm 4 mps 740 mmHg 91%
    07:00 0°C° 0 mm 3 mps 740 mmHg 91%
    08:00 -1°C° 0.1 mm 4 mps 740 mmHg 88%
    09:00 0°C° 0.1 mm 5 mps 740 mmHg 85%
    10:00 -1°C° 0.1 mm 6 mps 740 mmHg 82%
    11:00 -1°C° 0.1 mm 6 mps 740 mmHg 79%
    12:00 -1°C° 0.1 mm 6 mps 740 mmHg 76%
    13:00 -1°C° 0.1 mm 6 mps 740 mmHg 74%
    14:00 0°C° 0 mm 5 mps 740 mmHg 74%
    15:00 0°C° 0 mm 5 mps 740 mmHg 75%
    16:00 -1°C° 0 mm 5 mps 740 mmHg 75%
    17:00 -1°C° 0 mm 5 mps 740 mmHg 76%
    18:00 -2°C° 0 mm 6 mps 740 mmHg 76%
    19:00 -3°C° 0 mm 6 mps 740 mmHg 76%
    20:00 -3°C° 0 mm 6 mps 741 mmHg 77%
    21:00 -4°C° 0 mm 6 mps 741 mmHg 77%
    22:00 -4°C° 0 mm 5 mps 741 mmHg 78%
    23:00 -4°C° 0 mm 5 mps 740 mmHg 79%

    Tomorrow, 20 November, Tuesday

    Time Temperature Precipitation Wind Pressure Humidity
    00:00 -5°C° 0 mm 5 mps 740 mmHg 80%
    01:00 -5°C° 0 mm 5 mps 740 mmHg 81%
    02:00 -5°C° 0 mm 5 mps 740 mmHg 81%
    03:00 -5°C° 0 mm 5 mps 739 mmHg 81%
    04:00 -5°C° 0 mm 6 mps 739 mmHg 82%
    05:00 -4°C° 0 mm 5 mps 739 mmHg 82%
    06:00 -4°C° 0 mm 5 mps 739 mmHg 82%
    07:00 -4°C° 0 mm 5 mps 739 mmHg 82%
    08:00 -3°C° 0 mm 6 mps 739 mmHg 80%
    09:00 -3°C° 0 mm 6 mps 738 mmHg 78%
    10:00 -3°C° 0 mm 7 mps 738 mmHg 76%
    11:00 -2°C° 0 mm 6 mps 738 mmHg 75%
    12:00 -2°C° 0 mm 6 mps 737 mmHg 73%
    13:00 -1°C° 0 mm 6 mps 737 mmHg 72%
    14:00 -1°C° 0.2 mm 6 mps 737 mmHg 73%
    15:00 -1°C° 0.2 mm 6 mps 736 mmHg 74%
    16:00 0°C° 0.2 mm 5 mps 736 mmHg 75%
    17:00 -1°C° 0.3 mm 5 mps 736 mmHg 77%
    18:00 -1°C° 0.3 mm 5 mps 736 mmHg 79%
    19:00 -1°C° 0.3 mm 5 mps 736 mmHg 81%
    20:00 -1°C° 0.1 mm 5 mps 737 mmHg 83%
    21:00 -1°C° 0.1 mm 4 mps 737 mmHg 84%
    22:00 -1°C° 0.1 mm 4 mps 737 mmHg 86%
    23:00 -1°C° 0 mm 4 mps 738 mmHg 87%

    Day after tomorrow, 21 November, Wednesday

    Time Temperature Precipitation Wind Pressure Humidity
    00:00 0°C° 0 mm 3 mps 738 mmHg 89%
    01:00 -1°C° 0 mm 3 mps 738 mmHg 90%
    02:00 0°C° 0 mm 3 mps 738 mmHg 90%
    03:00 0°C° 0 mm 3 mps 738 mmHg 91%
    04:00 0°C° 0 mm 3 mps 738 mmHg 91%
    05:00 0°C° 0 mm 3 mps 739 mmHg 91%
    06:00 0°C° 0 mm 3 mps 739 mmHg 92%
    07:00 0°C° 0 mm 3 mps 739 mmHg 92%
    08:00 0°C° 0 mm 3 mps 740 mmHg 90%
    09:00 0°C° 0 mm 3 mps 740 mmHg 89%
    10:00 +1°C° 0 mm 3 mps 741 mmHg 88%
    11:00 0°C° 0 mm 4 mps 741 mmHg 87%
    12:00 0°C° 0 mm 4 mps 741 mmHg 86%
    13:00 +1°C° 0 mm 4 mps 741 mmHg 85%
    14:00 0°C° 0 mm 4 mps 741 mmHg 86%
    15:00 0°C° 0 mm 4 mps 741 mmHg 87%
    16:00 0°C° 0 mm 4 mps 741 mmHg 87%
    17:00 0°C° 0 mm 4 mps 741 mmHg 87%
    18:00 -1°C° 0 mm 4 mps 742 mmHg 87%
    19:00 -1°C° 0 mm 4 mps 742 mmHg 87%
    20:00 -1°C° 0 mm 4 mps 742 mmHg 87%
    21:00 -1°C° 0 mm 4 mps 742 mmHg 87%
    22:00 -1°C° 0 mm 4 mps 743 mmHg 87%
    23:00 -2°C° 0 mm 4 mps 743 mmHg 87%

    22 November, Thursday

    Time Temperature Precipitation Wind Pressure Humidity
    00:00 -2°C° 0 mm 4 mps 743 mmHg 86%
    01:00 -2°C° 0 mm 4 mps 743 mmHg 86%
    02:00 -2°C° 0 mm 4 mps 743 mmHg 87%
    03:00 -3°C° 0 mm 4 mps 743 mmHg 88%
    04:00 -2°C° 0 mm 3 mps 742 mmHg 89%
    05:00 -2°C° 0 mm 3 mps 743 mmHg 89%
    06:00 -4°C° 0 mm 3 mps 743 mmHg 89%
    07:00 -4°C° 0 mm 3 mps 743 mmHg 89%
    08:00 -2°C° 0 mm 3 mps 743 mmHg 86%
    09:00 -1°C° 0 mm 3 mps 743 mmHg 83%
    10:00 0°C° 0 mm 3 mps 743 mmHg 80%
    11:00 0°C° 0 mm 3 mps 743 mmHg 79%
    12:00 +1°C° 0 mm 3 mps 743 mmHg 78%
    13:00 +2°C° 0 mm 3 mps 743 mmHg 78%
    14:00 +1°C° 0 mm 3 mps 743 mmHg 81%
    15:00 +2°C° 0 mm 2 mps 743 mmHg 85%
    16:00 +1°C° 0 mm 2 mps 743 mmHg 88%
    17:00 +1°C° 0 mm 2 mps 744 mmHg 89%
    18:00 +1°C° 0 mm 2 mps 744 mmHg 90%
    19:00 -1°C° 0 mm 2 mps 744 mmHg 91%
    20:00 -1°C° 0 mm 2 mps 744 mmHg 91%
    21:00 -1°C° 0 mm 2 mps 744 mmHg 91%
    22:00 -1°C° 0 mm 2 mps 744 mmHg 91%
    23:00 -1°C° 0 mm 2 mps 744 mmHg 91%

    23 November, Friday

    Time Temperature Precipitation Wind Pressure Humidity
    00:00 -1°C° 0 mm 2 mps 745 mmHg 91%
    01:00 -1°C° 0 mm 2 mps 745 mmHg 91%
    02:00 -1°C° 0 mm 2 mps 745 mmHg 91%
    03:00 -1°C° 0 mm 2 mps 745 mmHg 91%
    04:00 -1°C° 0 mm 2 mps 745 mmHg 91%
    05:00 +1°C° 0 mm 2 mps 745 mmHg 91%
    06:00 +1°C° 0 mm 2 mps 745 mmHg 91%
    07:00 +1°C° 0 mm 2 mps 745 mmHg 92%
    08:00 +2°C° 0 mm 2 mps 745 mmHg 89%
    09:00 +3°C° 0 mm 2 mps 745 mmHg 86%
    10:00 +4°C° 0 mm 2 mps 746 mmHg 83%
    11:00 +5°C° 0 mm 2 mps 745 mmHg 81%
    12:00 +6°C° 0 mm 2 mps 745 mmHg 80%
    13:00 +7°C° 0 mm 2 mps 745 mmHg 78%
    14:00 +6°C° 0 mm 2 mps 745 mmHg 82%
    15:00 +5°C° 0 mm 2 mps 744 mmHg 86%
    16:00 +4°C° 0 mm 2 mps 744 mmHg 91%
    17:00 +4°C° 0 mm 2 mps 744 mmHg 91%
    18:00 +3°C° 0 mm 2 mps 744 mmHg 92%
    19:00 +3°C° 0 mm 2 mps 744 mmHg 92%
    20:00 +3°C° 0 mm 2 mps 744 mmHg 92%
    21:00 +3°C° 0 mm 2 mps 744 mmHg 92%
    22:00 +3°C° 0 mm 2 mps 743 mmHg 92%
    23:00 +3°C° 0 mm 2 mps 743 mmHg 92%

    24 November, Saturday

    Time Temperature Precipitation Wind Pressure Humidity
    00:00 +2°C° 0 mm 2 mps 743 mmHg 91%
    01:00 +2°C° 0 mm 2 mps 743 mmHg 91%
    02:00 +2°C° 0 mm 2 mps 742 mmHg 91%
    03:00 +2°C° 0 mm 2 mps 742 mmHg 91%
    04:00 +2°C° 0 mm 2 mps 742 mmHg 91%
    05:00 +2°C° 0 mm 2 mps 741 mmHg 91%
    06:00 +2°C° 0 mm 2 mps 741 mmHg 91%
    07:00 +2°C° 0 mm 2 mps 741 mmHg 91%
    08:00 +3°C° 0 mm 2 mps 741 mmHg 88%
    09:00 +4°C° 0 mm 2 mps 741 mmHg 85%
    10:00 +4°C° 0 mm 2 mps 741 mmHg 82%
    11:00 +5°C° 0 mm 2 mps 741 mmHg 81%
    12:00 +5°C° 0 mm 2 mps 740 mmHg 80%
    13:00 +6°C° 0 mm 2 mps 740 mmHg 78%
    14:00 +5°C° 0 mm 2 mps 740 mmHg 81%
    15:00 +6°C° 0 mm 1 mps 740 mmHg 84%
    16:00 +5°C° 0 mm 1 mps 739 mmHg 87%
    17:00 +5°C° 0 mm 1 mps 739 mmHg 88%
    18:00 +5°C° 0 mm 1 mps 739 mmHg 89%
    19:00 +5°C° 0 mm 1 mps 739 mmHg 90%
    20:00 +5°C° 0 mm 1 mps 739 mmHg 90%
    21:00 +5°C° 0 mm 1 mps 740 mmHg 91%
    22:00 +5°C° 0 mm 1 mps 740 mmHg 91%
    23:00 +3°C° 0 mm 2 mps 740 mmHg 92%
    Show more